Regional Weather Roundup
Issued by NWS

Home | Current Version | Previous Version | Graphics & Text | Print | Product List | Glossary On
Versions: 1 2 3 4 5 6 7 8 9 10 11 12 13 14 15 16 17 18 19 20 21 22 23 24 25 26 27 28 29 30 31 32 33 34 35 36 37 38 39 40 41 42 43 44 45 46 47 48 49 50
375
ASUS43 KDMX 211101
RWRIA

WEATHER ROUNDUP FOR IOWA
NATIONAL WEATHER SERVICE DES MOINES IA
600 AM CDT SAT OCT 21 2017

NOTE: "FAIR" INDICATES FEW OR NO CLOUDS BELOW 12,000 FEET WITH NO
SIGNIFICANT WEATHER AND/OR OBSTRUCTIONS TO VISIBILITY.

* - THESE STATIONS ARE NOT NWS STATIONS...THUS NOT UNDER NWS
QUALITY CONTROL.  THEY ALSO DO NOT REPORT WEATHER SUCH
AS PRECIPITATION OR FOG.

IAZ001>003-012>014-020>022-031>034-043>046-211200-
   NORTHWEST IOWA

CITY           SKY/WX    TMP DP  RH WIND       PRES   REMARKS
CHEROKEE *     RAIN      64  61  90 S15G25    29.60S
DENISON *      CLOUDY    63  61  94 S21G29    29.65S
LE MARS *      CLOUDY    66  61  82 S22G32    29.54S
ORANGE CITY *  CLOUDY    66  63  88 S14       29.57S
SHELDON *      CLOUDY    64  59  82 S20G30    29.56F
SIOUX CITY     CLOUDY    66  61  84 SE14      29.55S
SPENCER        LGT RAIN  62  58  86 SE21G30   29.62S
STORM LAKE *   CLOUDY    61  59  94 S14G23    29.64S
$$

IAZ055>058-069>071-079>083-090>094-211200-
   SOUTHWEST IOWA

CITY           SKY/WX    TMP DP  RH WIND       PRES   REMARKS
ATLANTIC *     CLOUDY    66  61  82 S20G29    29.68S
AUDUBON *      CLOUDY    63  59  88 S9G17     29.70R
CLARINDA *       N/A     66  59  77 S21G29    29.73S
COUNCIL BLFS * CLOUDY    64  64 100 S20       29.64R
CRESTON *      CLOUDY    63  57  82 S22G30    29.76S
HARLAN  *      CLOUDY    64  63  94 S16G23    29.69S
LAMONI         LGT RAIN  63  56  78 S17G26    29.81R
RED OAK *      CLOUDY    66  61  82 S22G30    29.68R
SHENANDOAH *   CLOUDY    66  61  82 S17G28    29.69R
$$

IAZ047>049-059>061-072>074-084-211200-
   CENTRAL IOWA

CITY           SKY/WX    TMP DP  RH WIND       PRES   REMARKS
AMES           CLOUDY    62  59  90 S12       29.76F
ANKENY *       CLOUDY    63  57  82 S16       29.78S
BOONE *        CLOUDY    61  57  88 S14       29.74S
CHARITON *     CLOUDY    64  57  77 S24G31    29.81S
DES MOINES     CLOUDY    64  58  80 S18G26    29.76F
GRINNELL*      CLOUDY    61  55  78 S15       29.85R
KNOXVILLE *    CLOUDY    64  55  72 S20G30    29.80S
MARSHALLTOWN   CLOUDY    63  56  78 S17       29.79F
NEWTON *       CLOUDY    64  55  72 S21G28    29.81F
PELLA *        CLOUDY    66  55  68 S20G25    29.84R
PERRY *        CLOUDY    63  60  93 S16       29.72F
$$

IAZ004>006-015-016-023>025-035-036-211200-
   NORTH CENTRAL IOWA

CITY           SKY/WX    TMP DP  RH WIND       PRES   REMARKS
ALGONA *       RAIN      61  61 100 S14       29.70S
CLARION *      CLOUDY    59  59 100 S18       29.73S
ESTHERVILLE    TSTM      59  59 100 S23G35    29.63F FOG
FORT DODGE *   LGT RAIN  61  59  93 S12G22    29.71S
MASON CITY     LGT RAIN  59  55  87 S16       29.76S
FOREST CITY *  LGT RAIN  59  55  88 S17       29.73R
WEBSTER CITY * DRIZZLE   61  57  88 SE14G20   29.72S
IOWA FALLS *   LGT RAIN  61  56  82 SE14      29.78S
$$

IAZ007>011-017>019-026>030-037>042-050>054-066-211200-
   NORTHEAST IOWA

CITY           SKY/WX    TMP DP  RH WIND       PRES   REMARKS
CEDAR RAPIDS   PTCLDY    61  52  72 S15       29.87S
CHARLES CITY * CLOUDY    61  57  88 S14G21    29.80R
CLINTON *      CLOUDY    63  51  65 S16       29.96S
DECORAH *      CLOUDY    61  52  72 S13G18    29.82S
DUBUQUE        PTCLDY    62  51  67 S16G24    29.92S
MONTICELLO *   CLOUDY    63  52  67 SE13      29.90R
OELWEIN *      CLOUDY    61  54  77 S17       29.84S
WATERLOO       CLOUDY    61  53  75 S21G29    29.81S
$$

IAZ064-065-067-068-078-211200-
   EAST CENTRAL IOWA

CITY           SKY/WX    TMP DP  RH WIND       PRES   REMARKS
DAVENPORT      CLOUDY    63  50  62 S15G21    29.97R
IOWA CITY      PTCLDY    64  53  67 S14G22    29.92R
MUSCATINE *    CLOUDY    63  52  67 S14       29.93S
QUAD CITIES    CLOUDY    64  49  57 S16G26    29.94S
$$

IAZ062-063-075>077-085>089-095>099-211200-
   SOUTHEAST IOWA

CITY           SKY/WX    TMP DP  RH WIND       PRES   REMARKS
BURLINGTON     MOCLDY    62  52  69 S12       29.94S
FAIRFIELD *    CLEAR     63  52  67 S20G26    29.88S
FORT MADISON * PTCLDY    61  52  72 S10       29.95S
KEOKUK *       CLOUDY    64  52  63 S15       29.93S
OSKALOOSA *      N/A     60  55  82 S18G24    29.86R
OTTUMWA        CLEAR     62  54  74 S17G29    29.86S
WASHINGTON *   MOCLDY    63  54  72 S17G26    29.91R
$$

ABBREVIATIONS USED IN REMARKS
   TC - TEMPERATURES IN CELSIUS
  WCI - WIND CHILL INDEX
   HX - HEAT INDEX
  VSB - VISIBILITY
$$





USA.gov is the U.S. government's official web portal to all federal, state and local government web resources and services.